Starlink 11416

operational
NORAD ID: 62594 Int'l Des: 2025-008 Owner: SPXS Country: US Constellation: starlink
LEOCIRCULAR

About Starlink 11416

Description loading...

Live Position

Loading 3D Globe...

Upcoming Passes

Altitude History

Altitude vs Time

uPlot chart will show altitude changes over time

Two-Line Element Set

1 62594U 25008H 26033.24777188 .00271923 00000-0 20448-2 0 9993
2 62594 43.0004 339.4482 0003616 269.6220 90.4233 15.70945512 61541
Epoch: Feb 2, 2026 • Age: 21 hours

Current Status

Altitude 364.4 km
Velocity 7.69 km/s
Sub-Earth Point -39.15°S, 38.72°E
Launch Date Jan 13, 2025
Age 1 years
Type internet

Technical Details

Classification Payload
Mass 960.00 kg
Dry Mass 910.00 kg
Total Mass 960.00 kg
Length 0.30 m
Diameter 4.10 m
Span 29.00 m
Shape Box + pan
Manufacturer SPXS
Bus Type Starlink V2MD
Phase Status In Orbit
Owner/State SPXS/US

Large Constellations

Loading constellations...